Location: Chateh
(58.6667°N, 118.6000°W)
Time: 07:07:07
(UTC+00:00)

Gurwin Techsat 1B - Pass Details

Date: 08 December 2023
Orbit: 810 x 813 km, 98.9° (Epoch: 04 March)

Event Time Altitude Azimuth Distance (km) Brightness Sun altitude
Rises 10:26:40 0° 21° (NNE) 3,352 12.4 -44.2°
Reaches altitude 10° 10:29:19 10° 32° (NNE) 2,416 11.6 -43.9°
Enters shadow 10:29:59 13° 37° (NE) 2,200 11.4 -43.8°
